Torna al catalogo

GLOBALSTAR M075

AttivoComunicazioniLEO
NORAD 37192·PAYLOAD·🇺🇸 United States

Lanciato Oct 19, 2010 da Baikonur Cosmodrome

Loading…

Prossimi Passaggi (prossime 24 ore)

TLE

AggiornatoSource: Space-Track

Epoca: Sep 14, 2026, 06:34 UTC

1 37192U 10054E   26257.27389181 -.00000113  00000-0 -50272-4 0  9990
2 37192  51.9929 238.9446 0000439  70.8523 302.9827 12.62260485733196

Traccia GLOBALSTAR M075 in tempo reale con AllMySat

Download on the App Store